Weather reports worldwide

Advertisment
Hoogeveen aws, Netherlands (6279): temperature & dewpoint: 09.12.2019 00:00:00 - 15.12.2019 00:00:00 (CET)Hoogeveen aws, Netherlands (6279): temperature 5cm: 09.12.2019 00:00:00 - 15.12.2019 00:00:00 (CET)Hoogeveen aws, Netherlands (6279): wind speed & gusts: 09.12.2019 00:00:00 - 15.12.2019 00:00:00 (CET)Hoogeveen aws, Netherlands (6279): wind direction: 09.12.2019 00:00:00 - 15.12.2019 00:00:00 (CET)Hoogeveen aws, Netherlands (6279): reduced air pressure: 09.12.2019 00:00:00 - 15.12.2019 00:00:00 (CET)Hoogeveen aws, Netherlands (6279): visibility: 09.12.2019 00:00:00 - 15.12.2019 00:00:00 (CET)Hoogeveen aws, Netherlands (6279): precipitation: 09.12.2019 00:00:00 - 15.12.2019 00:00:00 (CET)
Date & Time tt [°C] td [°C] tt 5cm [°C] ff [km/h] ff [kn] fx [km/h] fx [kn] dd ppp [hPa] vv [km] rr [mm]
15.12.2019 00:00:00 2,9 0,5 2,1 18 10 - - SSW 995,8 22 -
14.12.2019 23:00:00 3,5 0,8 2,7 18 10 32 18 SW 995,9 28 0,0
14.12.2019 22:00:00 4,0 1,8 3,6 22 12 32 18 SW 995,5 30 0,0
14.12.2019 21:00:00 4,2 1,7 3,6 22 12 36 19 SW 994,7 37 0,0
14.12.2019 20:00:00 3,6 3,0 3,1 7 4 32 18 W 993,7 36 0,0
14.12.2019 19:00:00 3,2 2,7 3,0 18 10 40 21 WSW 992,1 32 0,5
14.12.2019 18:00:00 2,8 2,2 2,8 18 10 36 19 WSW 991,1 23 1,5
14.12.2019 17:00:00 3,7 2,4 3,6 29 16 50 27 WSW 989,9 10 1,2
14.12.2019 16:00:00 6,3 2,7 5,8 29 16 50 27 SW 989,1 13 0,0
14.12.2019 15:00:00 6,7 2,0 6,4 29 16 50 27 WSW 988,5 21 0,0
14.12.2019 14:00:00 6,8 2,3 6,5 32 18 61 33 WSW 988,0 26 0,0
14.12.2019 13:00:00 6,9 2,9 6,8 29 16 68 37 WSW 987,0 37 0,0
14.12.2019 12:00:00 6,7 3,1 6,4 32 18 47 25 WSW 986,3 34 0,0
14.12.2019 11:00:00 5,5 3,6 5,1 29 16 54 29 WSW 985,5 36 0,2
14.12.2019 10:00:00 5,3 3,7 5,0 25 14 40 21 WSW 984,1 24 0,2
14.12.2019 09:00:00 4,5 3,6 4,0 22 12 32 18 SW 983,0 18 0,0
14.12.2019 08:00:00 4,2 3,8 3,9 22 12 29 16 SSW 981,7 14 0,0
14.12.2019 07:00:00 4,5 3,7 4,3 22 12 36 19 SW 981,2 9 1,6
14.12.2019 06:00:00 4,7 3,5 4,5 22 12 36 19 SW 980,8 14 0,2
14.12.2019 05:00:00 4,8 3,5 4,6 18 10 32 18 SSW 980,2 13 0,0
14.12.2019 04:00:00 4,8 3,4 4,3 22 12 32 18 S 980,4 14 0,0
14.12.2019 03:00:00 5,0 3,6 4,7 22 12 36 19 SSW 980,8 13 0,0
14.12.2019 02:00:00 5,2 3,6 4,8 25 14 40 21 SSW 981,1 17 0,0
14.12.2019 01:00:00 5,2 4,2 4,9 18 10 29 16 SSW 981,4 17 0,0
14.12.2019 00:00:00 5,4 4,8 5,1 22 12 32 18 SSW 981,9 10 0,1
13.12.2019 23:00:00 5,3 4,7 4,6 22 12 29 16 SW 982,1 13 0,0
13.12.2019 22:00:00 4,5 4,3 3,6 14 8 22 12 SSW 982,0 4,7 0,0
13.12.2019 21:00:00 4,0 4,0 3,8 14 8 22 12 SSW 982,2 3,4 0,0
13.12.2019 20:00:00 3,1 3,0 3,0 11 6 14 8 SSW 982,0 3,1 0,1
13.12.2019 19:00:00 2,5 2,4 2,5 7 4 11 6 S 981,6 5 0,1
13.12.2019 18:00:00 2,3 2,1 2,4 7 4 11 6 S 981,3 8 0,0
13.12.2019 17:00:00 2,3 1,9 2,3 7 4 11 6 S 980,3 10 0,3
13.12.2019 16:00:00 2,7 2,1 2,8 4 2 7 4 S 979,4 12 0,5
13.12.2019 15:00:00 3,1 1,9 3,1 7 4 14 8 SSE 978,3 14 0,5
13.12.2019 14:00:00 3,4 1,8 3,5 11 6 14 8 ESE 977,4 39 0,0
13.12.2019 13:00:00 3,8 1,4 3,8 11 6 14 8 ESE 976,6 49 0,0
13.12.2019 12:00:00 3,5 1,2 3,5 11 6 18 10 E 976,1 47 0,0
13.12.2019 11:00:00 3,1 1,4 3,0 11 6 29 16 ESE 975,9 38 0,0
13.12.2019 10:00:00 2,9 0,8 2,8 18 10 29 16 SE 975,5 45 0,0
13.12.2019 09:00:00 2,7 0,9 2,5 18 10 32 18 SE 975,3 50 0,0
13.12.2019 08:00:00 2,5 1,0 2,3 22 12 32 18 SE 975,2 50 0,0
13.12.2019 07:00:00 2,3 1,4 2,2 22 12 32 18 SE 975,6 14 0,1
13.12.2019 06:00:00 2,3 1,2 2,2 22 12 36 19 SE 976,3 17 0,7
13.12.2019 05:00:00 2,9 0,5 2,6 25 14 36 19 SSE 977,0 22 0,1
13.12.2019 04:00:00 3,0 0,0 2,6 22 12 43 23 SE 978,0 44 0,0
13.12.2019 03:00:00 3,4 0,1 3,1 29 16 47 25 SE 978,9 45 0,0
13.12.2019 02:00:00 3,1 0,2 2,8 25 14 40 21 SE 980,5 39 0,0
13.12.2019 01:00:00 3,3 0,0 2,7 29 16 43 23 SSE 982,1 43 0,0
13.12.2019 00:00:00 3,1 0,1 2,6 25 14 40 21 SSE 984,0 42 0,0
12.12.2019 23:00:00 3,3 0,1 2,9 25 14 40 21 SSE 985,8 42 0,0
12.12.2019 22:00:00 3,2 0,0 2,7 22 12 36 19 SSE 987,4 49 0,0
12.12.2019 21:00:00 3,0 -0,2 2,5 25 14 36 19 SSE 989,1 38 0,0
12.12.2019 20:00:00 3,3 0,3 2,8 22 12 32 18 SSE 990,6 41 0,0
12.12.2019 19:00:00 2,9 0,9 2,1 22 12 29 16 SSE 991,8 24 0,0
12.12.2019 18:00:00 2,7 1,0 1,8 14 8 25 14 SSE 993,3 35 0,0
12.12.2019 17:00:00 2,9 1,2 2,1 14 8 25 14 SSE 994,7 27 0,0
12.12.2019 16:00:00 3,5 1,5 2,8 14 8 32 18 S 995,8 29 0,0
12.12.2019 15:00:00 4,3 1,6 4,0 22 12 36 19 S 996,8 28 0,0
12.12.2019 14:00:00 4,6 2,5 4,6 22 12 32 18 S 997,7 16 0,0
12.12.2019 13:00:00 4,8 3,0 5,2 18 10 32 18 SSW 998,5 13 0,0
12.12.2019 12:00:00 4,7 3,2 4,6 22 12 32 18 SSW 999,4 14 0,0
12.12.2019 11:00:00 4,4 3,4 4,6 18 10 25 14 SSW 1000,0 10 0,0
12.12.2019 10:00:00 3,6 3,2 3,0 14 8 18 10 SW 1000,3 6 0,0
12.12.2019 09:00:00 3,5 3,1 3,1 14 8 25 14 SW 1000,4 6 0,0
12.12.2019 08:00:00 4,2 3,4 3,8 18 10 22 12 SW 1000,3 9 0,0
12.12.2019 07:00:00 4,5 3,6 4,2 14 8 25 14 SSW 1000,2 10 0,0
12.12.2019 06:00:00 4,7 3,7 4,5 18 10 25 14 SSW 1000,1 10 0,0
12.12.2019 05:00:00 4,9 4,2 4,8 14 8 22 12 SSW 1000,5 9 0,1
12.12.2019 04:00:00 5,2 4,2 5,0 14 8 22 12 SSW 1000,7 10 0,0
12.12.2019 03:00:00 5,3 4,5 5,1 11 6 22 12 SSW 1001,2 7 0,0
12.12.2019 02:00:00 5,2 4,8 5,0 14 8 22 12 SSW 1001,5 5 0,0
12.12.2019 01:00:00 4,9 4,6 4,8 14 8 22 12 S 1001,9 3,7 0,0
12.12.2019 00:00:00 4,5 4,3 4,2 11 6 18 10 S 1002,4 3,1 0,0
11.12.2019 23:00:00 4,4 4,2 4,1 11 6 22 12 SSW 1002,9 3,0 0,0
11.12.2019 22:00:00 4,2 4,0 3,8 14 8 22 12 SSW 1003,4 2,6 0,0
11.12.2019 21:00:00 4,0 3,8 3,5 14 8 18 10 SSW 1003,5 3,2 0,0
11.12.2019 20:00:00 4,4 4,2 3,8 11 6 22 12 SSW 1003,7 3,1 0,0
11.12.2019 19:00:00 4,4 4,2 3,8 11 6 18 10 SSW 1004,0 3,0 0,0
11.12.2019 18:00:00 5,5 5,1 5,3 11 6 18 10 S 1004,1 5 0,0
11.12.2019 17:00:00 5,8 5,5 5,5 11 6 14 8 SSW 1004,4 6 0,0
11.12.2019 16:00:00 6,1 5,3 5,7 11 6 22 12 S 1004,5 8 0,0
11.12.2019 15:00:00 6,6 5,5 6,5 11 6 22 12 SSW 1004,7 11 0,0
11.12.2019 14:00:00 6,8 5,6 6,9 11 6 18 10 SSW 1005,2 11 0,0
11.12.2019 13:00:00 6,9 6,2 7,0 11 6 22 12 SW 1005,9 10 0,0
11.12.2019 12:00:00 6,8 6,5 6,7 14 8 22 12 SW 1006,6 9 0,0
11.12.2019 11:00:00 6,5 6,2 6,4 14 8 25 14 SSW 1007,3 8 0,0
11.12.2019 10:00:00 6,2 6,1 6,2 14 8 22 12 SSW 1007,4 7 0,0
11.12.2019 09:00:00 6,0 5,9 5,9 11 6 18 10 SSW 1007,6 4,0 0,8
11.12.2019 08:00:00 5,8 5,8 5,7 18 10 29 16 SSW 1008,2 3,4 0,8
11.12.2019 07:00:00 5,8 5,6 5,7 18 10 32 18 SSW 1008,1 14 0,4
11.12.2019 06:00:00 5,8 5,5 5,6 22 12 40 21 SSW 1007,9 14 0,4
11.12.2019 05:00:00 5,6 5,1 5,4 25 14 43 23 SSW 1008,0 14 0,9
11.12.2019 04:00:00 5,5 4,3 5,3 29 16 50 27 SSW 1008,2 13 0,0
11.12.2019 03:00:00 5,8 3,6 5,6 32 18 61 33 SSW 1008,1 9 0,0
11.12.2019 02:00:00 6,6 2,1 6,2 36 19 54 29 SSW 1008,2 40 0,0
11.12.2019 01:00:00 6,1 0,8 5,6 29 16 50 27 SSW 1008,8 42 0,0
11.12.2019 00:00:00 5,7 0,6 5,4 36 19 61 33 S 1009,5 38 0,0
10.12.2019 23:00:00 5,6 0,3 5,2 40 21 58 31 SSW 1010,1 44 0,0
10.12.2019 22:00:00 5,5 0,4 5,1 36 19 58 31 SSW 1010,9 44 0,0
10.12.2019 21:00:00 5,2 0,4 4,8 32 18 58 31 S 1011,7 44 0,0
10.12.2019 20:00:00 5,2 0,7 4,8 36 19 54 29 S 1012,8 48 0,0
10.12.2019 19:00:00 5,2 0,6 4,7 32 18 50 27 S 1014,3 43 0,0
10.12.2019 18:00:00 4,8 1,0 4,4 29 16 47 25 S 1015,5 33 0,0
10.12.2019 17:00:00 4,6 1,2 4,2 29 16 47 25 S 1016,7 24 0,0
10.12.2019 16:00:00 4,6 1,3 4,2 25 14 43 23 S 1018,1 27 0,0
10.12.2019 15:00:00 5,2 1,2 4,7 25 14 40 21 SSW 1019,0 29 0,0
10.12.2019 14:00:00 5,6 1,9 5,6 22 12 43 23 SSW 1020,3 29 0,0
10.12.2019 13:00:00 6,1 2,4 6,5 25 14 36 19 SSW 1021,3 22 0,0
10.12.2019 12:00:00 5,4 2,5 5,6 18 10 32 18 SSW 1022,4 21 0,0
10.12.2019 11:00:00 4,1 1,8 4,2 18 10 25 14 SSW 1023,3 21 0,0
10.12.2019 10:00:00 3,0 1,3 2,5 14 8 18 10 SSW 1023,6 19 0,0
10.12.2019 09:00:00 1,4 0,3 0,6 14 8 14 8 SSW 1023,4 16 0,0
10.12.2019 08:00:00 1,6 0,4 0,7 11 6 14 8 SW 1023,0 17 0,0
10.12.2019 07:00:00 1,1 -0,7 0,2 11 6 14 8 WSW 1022,9 22 0,0
10.12.2019 06:00:00 1,9 -0,3 1,3 11 6 14 8 WSW 1022,6 22 0,0
10.12.2019 05:00:00 3,3 0,4 2,6 11 6 22 12 W 1022,2 21 0,0
10.12.2019 04:00:00 3,0 -0,3 2,1 14 8 22 12 W 1021,8 21 0,0
10.12.2019 03:00:00 3,5 -0,3 1,9 7 4 18 10 W 1021,2 23 0,0
10.12.2019 02:00:00 3,1 -0,5 2,2 14 8 22 12 W 1020,0 21 0,0
10.12.2019 01:00:00 3,3 0,1 2,0 14 8 22 12 W 1019,1 22 0,0
10.12.2019 00:00:00 4,6 0,1 3,7 14 8 40 21 WNW 1018,1 31 0,0
09.12.2019 23:00:00 4,5 0,6 3,7 22 12 43 23 WNW 1017,0 19 0,0
09.12.2019 22:00:00 4,5 1,2 3,8 11 6 29 16 WNW 1015,7 19 0,0
09.12.2019 21:00:00 5,2 0,8 4,2 18 10 50 27 WNW 1014,0 21 0,1
09.12.2019 20:00:00 5,1 1,5 4,5 18 10 32 18 NW 1012,5 18 0,0
09.12.2019 19:00:00 5,6 1,7 4,9 22 12 47 25 NW 1010,4 22 0,0
09.12.2019 18:00:00 6,3 1,9 5,7 25 14 40 21 NW 1008,1 15 0,0
09.12.2019 17:00:00 6,9 3,3 6,3 25 14 32 18 NNW 1005,8 15 0,0
09.12.2019 16:00:00 6,9 3,4 6,5 25 14 32 18 NNW 1003,4 30 0,1
09.12.2019 15:00:00 6,5 5,1 6,3 18 10 32 18 NW 1001,1 28 1,0
09.12.2019 14:00:00 7,3 4,9 7,1 18 10 25 14 WNW 999,0 38 0,1
09.12.2019 13:00:00 7,5 5,9 7,6 14 8 25 14 W 997,4 17 0,0
09.12.2019 12:00:00 6,4 5,1 6,4 18 10 25 14 WSW 996,2 30 0,0
09.12.2019 11:00:00 6,1 4,8 6,1 14 8 18 10 SW 995,4 50 0,0
09.12.2019 10:00:00 5,9 4,8 5,7 11 6 22 12 SW 994,4 50 0,0
09.12.2019 09:00:00 5,7 5,0 5,7 11 6 18 10 SW 993,6 5 0,0
09.12.2019 08:00:00 5,8 4,9 5,4 11 6 29 16 SW 992,8 24 0,1
09.12.2019 07:00:00 6,4 4,2 6,0 18 10 36 19 SW 992,5 24 0,0
09.12.2019 06:00:00 6,0 3,9 5,2 25 14 40 21 SSW 992,6 24 0,0
09.12.2019 05:00:00 6,2 4,0 5,5 25 14 40 21 SSW 992,8 24 0,0
09.12.2019 04:00:00 6,3 4,0 5,8 29 16 43 23 SW 993,3 17 0,0
09.12.2019 03:00:00 6,4 3,9 5,7 29 16 36 19 SSW 993,8 23 0,0
09.12.2019 02:00:00 6,4 4,1 5,8 29 16 43 23 SW 993,8 20 0,0
09.12.2019 01:00:00 6,9 4,2 6,4 25 14 47 25 SW 994,1 17 0,0
09.12.2019 00:00:00 6,7 4,7 6,1 25 14 43 23 SW 994,3 19 0,0

tt = temperature
td = dewpoint
tt 5cm = temperature 5cm
ff = wind speed
fx = gusts
dd = wind direction
ppp = reduced air pressure
vv = visibility
rr = precipitation

Next stations